This is the latest recevied weather packets stored in our database for station/object K8RRT. If no packets are shown the sender has not sent any weather packets the latest 10 day(s).
| Time | Temp. | Humidity | Pressure | Rain* | Wind** | Luminosity | Snow |
|---|---|---|---|---|---|---|---|
| 1777745657 | 12.22° C | 50% | 1012.1 hPa | 0 mm | - | 347 W/m² | - |
| 1777745355 | 11.67° C | 50% | 1012.2 hPa | 0 mm | - | 311 W/m² | - |
| 1777745052 | 11.67° C | 48% | 1012.3 hPa | 0 mm | - | 238 W/m² | - |
| 1777744748 | 11.11° C | 50% | 1012.3 hPa | 0 mm | - | 184 W/m² | - |
| 1777744443 | 11.67° C | 49% | 1012.5 hPa | 0 mm | - | 116 W/m² | - |
| 1777744139 | 11.67° C | 49% | 1012.2 hPa | 0 mm | - | 119 W/m² | - |
| 1777743836 | 11.67° C | 48% | 1012.5 hPa | 0 mm | - | 212 W/m² | - |
| 1777743533 | 11.67° C | 48% | 1012.4 hPa | 0 mm | - | 233 W/m² | - |
| 1777743230 | 11.11° C | 48% | 1012.2 hPa | 0 mm | - | 146 W/m² | - |
| 1777742928 | 11.11° C | 49% | 1012.4 hPa | 0 mm | - | 111 W/m² | - |
| 1777742624 | 11.67° C | 49% | 1012.4 hPa | 0 mm | - | 116 W/m² | - |
| 1777742320 | 11.67° C | 48% | 1012.3 hPa | 0 mm | - | 135 W/m² | - |
| 1777742017 | 12.22° C | 48% | 1012.3 hPa | 0 mm | - | 226 W/m² | - |
| 1777741714 | 12.78° C | 46% | 1012.5 hPa | 0 mm | - | 556 W/m² | - |
| 1777741411 | 12.78° C | 50% | 1012.3 hPa | 0 mm | - | 346 W/m² | - |
| 1777741107 | 11.67° C | 48% | 1012.4 hPa | 0 mm | - | 860 W/m² | - |
| 1777740804 | 11.67° C | 48% | 1012.5 hPa | 0 mm | - | 163 W/m² | - |
| 1777740501 | 11.67° C | 47% | 1012.4 hPa | 0 mm | - | 172 W/m² | - |
| 1777740198 | 11.67° C | 46% | 1012.4 hPa | 0 mm | - | 235 W/m² | - |
| 1777739894 | 12.22° C | 50% | 1012.6 hPa | 0 mm | - | 774 W/m² | - |
| 1777739591 | 11.67° C | 52% | 1012.8 hPa | 0 mm | - | 875 W/m² | - |
| 1777739288 | 11.11° C | 55% | 1012.4 hPa | 0 mm | - | 239 W/m² | - |
| 1777738985 | 11.67° C | 51% | 1012.8 hPa | 0 mm | - | 135 W/m² | - |
| 1777738681 | 11.67° C | 50% | 1012.6 hPa | 0 mm | - | 147 W/m² | - |
| 1777738377 | 13.33° C | 51% | 1012.7 hPa | 0 mm | - | 353 W/m² | - |
* Rain latest hour (hover to see other rain measurements)
** Current wind speed in m/s (hover to see current wind gust speed)